Naikai2 — JD2433 — position and weather

sailwx.info

Track history (hours):
 
Tides and Currents Weather Stations Pressure Air Temp Water Temp Dewpoint Dewpoint Depression Visibility Wind Speed Wind Dir Waves Ship Positions

Naikai2

Last reported at 2014-Oct-26 03:29 UTC. Time now 2014-Oct-26 09:38 UTC.
Position N 34°39' E 135°10'.

Length 28 m; draft 2.2 m.

Type: Other ship. MMSI: 431000283.

Date/timePositionNaut miles runAvg speedWind from/ knotsBaromVisibWave heightAir tempDewpointWater temp
2014-Oct-26 03:29N 34°39' E 135°10'1314.0
2014-Oct-26 02:33N 34°33' E 135°25'4 3.7
2014-Oct-26 01:33N 34°33' E 135°20'7 6.5
2014-Oct-26 00:33N 34°31' E 135°13'1712.8
2014-Oct-25 23:15N 34°18' E 134°59'5 7.4
2014-Oct-25 22:32N 34°13' E 134°58'1312.5
2014-Oct-25 21:31N 34°26' E 134°60'1414.0
2014-Oct-25 20:33N 34°37' E 135°09'2 0.1
2014-Oct-24 23:06N 34°39' E 135°10'1 2.6
2014-Oct-24 22:33N 34°40' E 135°11'0 0.0
2014-Oct-24 21:33N 34°40' E 135°11'5 5.1
2014-Oct-24 20:33N 34°37' E 135°06'2 2.4
2014-Oct-24 19:33N 34°36' E 135°03'6 6.2
2014-Oct-24 18:34N 34°38' E 135°10'1 0.6
2014-Oct-24 17:33N 34°39' E 135°10'1 0.1
2014-Oct-24 06:33N 34°38' E 135°10'1110.8
2014-Oct-24 05:33N 34°36' E 134°57'4 3.9
2014-Oct-24 04:33N 34°36' E 135°02'3 3.3
2014-Oct-24 03:32N 34°36' E 134°57'1010.6
2014-Oct-24 02:33N 34°38' E 135°10'1 0.6
2014-Oct-24 01:33N 34°39' E 135°10'0 0.0
2014-Oct-24 00:34N 34°39' E 135°10'0 0.0
2014-Oct-23 23:34N 34°39' E 135°10'  
2014-Oct-21 19:34N 34°38' E 135°10'1110.3
2014-Oct-21 18:32N 34°37' E 134°57'9 8.9
2014-Oct-21 17:33N 34°35' E 135°07'4 4.4
2014-Oct-21 16:32N 34°39' E 135°10'7 1.1
2014-Oct-21 10:33N 34°32' E 135°08'1715.2
2014-Oct-21 09:25N 34°16' E 134°59'9 9.6
2014-Oct-21 08:31N 34°24' E 135°02'1212.8
2014-Oct-21 07:34N 34°32' E 135°14'9 8.3
2014-Oct-21 06:32N 34°33' E 135°24'2 2.2
2014-Oct-21 05:33N 34°34' E 135°22'1110.5
2014-Oct-21 04:33N 34°40' E 135°11'3 0.1
2014-Oct-20 07:09N 34°38' E 135°10'914.4
2014-Oct-20 06:33N 34°30' E 135°06'1514.8
2014-Oct-20 05:33N 34°16' E 134°59'8 7.9
2014-Oct-20 04:30N 34°23' E 135°03'1213.2
2014-Oct-20 03:33N 34°32' E 135°14'8 8.1
2014-Oct-20 02:33N 34°33' E 135°24'1 0.6
2014-Oct-20 01:32N 34°33' E 135°24'2 0.9
2014-Oct-19 23:09N 34°31' E 135°24'2 3.9
2014-Oct-19 22:32N 34°34' E 135°24'7 7.0
2014-Oct-19 21:33N 34°32' E 135°16'1313.1
2014-Oct-19 20:31N 34°22' E 135°05'1212.2
2014-Oct-19 19:33N 34°11' E 134°59'7 7.0
2014-Oct-19 18:34N 34°18' E 134°59'5 0.5
2014-Oct-19 09:08N 34°23' E 135°01'813.5
2014-Oct-19 08:33N 34°29' E 135°07'1111.6
2014-Oct-19 07:33N 34°33' E 135°20'5 4.8
2014-Oct-19 06:33N 34°33' E 135°26'3 1.3
2014-Oct-19 04:29N 34°31' E 135°24'2 0.8
2014-Oct-19 01:33N 34°33' E 135°24'5 5.2
2014-Oct-19 00:33N 34°34' E 135°18'9 8.5
2014-Oct-18 23:33N 34°39' E 135°10'4 0.3
2014-Oct-18 09:33N 34°35' E 135°09'1615.0
2014-Oct-18 08:30N 34°21' E 135°01'2 2.1
2014-Oct-18 07:20N 34°23' E 135°01'1214.9
2014-Oct-18 06:33N 34°30' E 135°13'9 9.3
2014-Oct-18 05:32N 34°33' E 135°24'0 0.2
2014-Oct-18 04:32N 34°33' E 135°24'7 7.5
2014-Oct-18 03:33N 34°38' E 135°17'6 5.7
2014-Oct-18 02:33N 34°40' E 135°11'7 1.1
2014-Oct-17 20:33N 34°37' E 135°03'2 2.4
2014-Oct-17 19:33N 34°35' E 135°05'5 5.4
2014-Oct-17 18:33N 34°39' E 135°10'2 0.1
2014-Oct-16 11:33N 34°37' E 135°10'1413.8
2014-Oct-16 10:33N 34°25' E 135°04'8 6.2
2014-Oct-16 09:13N 34°18' E 134°58'913.4
2014-Oct-16 08:32N 34°26' E 135°02'9 9.1
2014-Oct-16 07:33N 34°35' E 135°05'7 6.7
2014-Oct-16 06:33N 34°35' E 134°57'4 4.4
2014-Oct-16 05:34N 34°35' E 135°02'  
Track history (hours):
 
Tides and Currents Weather Stations Pressure Air Temp Water Temp Dewpoint Dewpoint Depression Visibility Wind Speed Wind Dir Waves Ship Positions

Naikai2

Last reported at 2014-Oct-26 03:29 UTC. Time now 2014-Oct-26 09:38 UTC.
Position N 34°39' E 135°10'.

Length 28 m; draft 2.2 m.

Type: Other ship. MMSI: 431000283.

Date/timePositionNaut miles runAvg speedWind from/ knotsBaromVisibWave heightAir tempDewpointWater temp
2014-Oct-26 03:29N 34°39' E 135°10'1314.0
2014-Oct-26 02:33N 34°33' E 135°25'4 3.7
2014-Oct-26 01:33N 34°33' E 135°20'7 6.5
2014-Oct-26 00:33N 34°31' E 135°13'1712.8
2014-Oct-25 23:15N 34°18' E 134°59'5 7.4
2014-Oct-25 22:32N 34°13' E 134°58'1312.5
2014-Oct-25 21:31N 34°26' E 134°60'1414.0
2014-Oct-25 20:33N 34°37' E 135°09'2 0.1
2014-Oct-24 23:06N 34°39' E 135°10'1 2.6
2014-Oct-24 22:33N 34°40' E 135°11'0 0.0
2014-Oct-24 21:33N 34°40' E 135°11'5 5.1
2014-Oct-24 20:33N 34°37' E 135°06'2 2.4
2014-Oct-24 19:33N 34°36' E 135°03'6 6.2
2014-Oct-24 18:34N 34°38' E 135°10'1 0.6
2014-Oct-24 17:33N 34°39' E 135°10'1 0.1
2014-Oct-24 06:33N 34°38' E 135°10'1110.8
2014-Oct-24 05:33N 34°36' E 134°57'4 3.9
2014-Oct-24 04:33N 34°36' E 135°02'3 3.3
2014-Oct-24 03:32N 34°36' E 134°57'1010.6
2014-Oct-24 02:33N 34°38' E 135°10'1 0.6
2014-Oct-24 01:33N 34°39' E 135°10'0 0.0
2014-Oct-24 00:34N 34°39' E 135°10'0 0.0
2014-Oct-23 23:34N 34°39' E 135°10'  
2014-Oct-21 19:34N 34°38' E 135°10'1110.3
2014-Oct-21 18:32N 34°37' E 134°57'9 8.9
2014-Oct-21 17:33N 34°35' E 135°07'4 4.4
2014-Oct-21 16:32N 34°39' E 135°10'7 1.1
2014-Oct-21 10:33N 34°32' E 135°08'1715.2
2014-Oct-21 09:25N 34°16' E 134°59'9 9.6
2014-Oct-21 08:31N 34°24' E 135°02'1212.8
2014-Oct-21 07:34N 34°32' E 135°14'9 8.3
2014-Oct-21 06:32N 34°33' E 135°24'2 2.2
2014-Oct-21 05:33N 34°34' E 135°22'1110.5
2014-Oct-21 04:33N 34°40' E 135°11'3 0.1
2014-Oct-20 07:09N 34°38' E 135°10'914.4
2014-Oct-20 06:33N 34°30' E 135°06'1514.8
2014-Oct-20 05:33N 34°16' E 134°59'8 7.9
2014-Oct-20 04:30N 34°23' E 135°03'1213.2
2014-Oct-20 03:33N 34°32' E 135°14'8 8.1
2014-Oct-20 02:33N 34°33' E 135°24'1 0.6
2014-Oct-20 01:32N 34°33' E 135°24'2 0.9
2014-Oct-19 23:09N 34°31' E 135°24'2 3.9
2014-Oct-19 22:32N 34°34' E 135°24'7 7.0
2014-Oct-19 21:33N 34°32' E 135°16'1313.1
2014-Oct-19 20:31N 34°22' E 135°05'1212.2
2014-Oct-19 19:33N 34°11' E 134°59'7 7.0
2014-Oct-19 18:34N 34°18' E 134°59'5 0.5
2014-Oct-19 09:08N 34°23' E 135°01'813.5
2014-Oct-19 08:33N 34°29' E 135°07'1111.6
2014-Oct-19 07:33N 34°33' E 135°20'5 4.8
2014-Oct-19 06:33N 34°33' E 135°26'3 1.3
2014-Oct-19 04:29N 34°31' E 135°24'2 0.8
2014-Oct-19 01:33N 34°33' E 135°24'5 5.2
2014-Oct-19 00:33N 34°34' E 135°18'9 8.5
2014-Oct-18 23:33N 34°39' E 135°10'4 0.3
2014-Oct-18 09:33N 34°35' E 135°09'1615.0
2014-Oct-18 08:30N 34°21' E 135°01'2 2.1
2014-Oct-18 07:20N 34°23' E 135°01'1214.9
2014-Oct-18 06:33N 34°30' E 135°13'9 9.3
2014-Oct-18 05:32N 34°33' E 135°24'0 0.2
2014-Oct-18 04:32N 34°33' E 135°24'7 7.5
2014-Oct-18 03:33N 34°38' E 135°17'6 5.7
2014-Oct-18 02:33N 34°40' E 135°11'7 1.1
2014-Oct-17 20:33N 34°37' E 135°03'2 2.4
2014-Oct-17 19:33N 34°35' E 135°05'5 5.4
2014-Oct-17 18:33N 34°39' E 135°10'2 0.1
2014-Oct-16 11:33N 34°37' E 135°10'1413.8
2014-Oct-16 10:33N 34°25' E 135°04'8 6.2
2014-Oct-16 09:13N 34°18' E 134°58'913.4
2014-Oct-16 08:32N 34°26' E 135°02'9 9.1
2014-Oct-16 07:33N 34°35' E 135°05'7 6.7
2014-Oct-16 06:33N 34°35' E 134°57'4 4.4
2014-Oct-16 05:34N 34°35' E 135°02'  

Dump ship's entire track history